"startDT [UTC]","vpos","CH4 [ppm]","stdev(CH4) [ppm]","CO2 [ppm]","stdev(CO2) [ppm]","H2O [ppm]","stdev(H2O)","p_LGR [torr]","T_LGR [C]","mt1_LGR [us]","mt2_LGR [us]","T_ECpre [C]","T_EC1 [C]","T_EC2 [C]","p_inlet [hPa]","p_in [hPa]","p_out [hPa]","T_inlet [C]","RH_inlet [%]","dwpt_inlet [C]","T_vent [C]","RH_vent [%]","dwpt_vent [C]","flow_vent [l min-1]","flow_inlet [l min-1]","dwpt_sample [C]","T_room [C]"
2012-07-11 00:00:00,0.0,1.9133,0.0010,380.86,0.36,410.3,36.0,137.93,37.48,24.64,36.37,0.97,-1.30,-25.62,-69,563,-941,33.0,20.4,7.3,32.9,0.9,-31.4,5.73,2.25,-24.9,36.9
2012-07-11 00:01:00,0.0,1.9148,0.0013,380.57,0.40,403.5,34.8,137.93,37.48,24.64,36.37,0.98,-0.36,-25.62,-69,563,-940,33.0,20.5,7.4,32.9,0.9,-31.4,5.73,2.21,-24.9,36.9
2012-07-11 00:02:00,0.0,1.9146,0.0013,380.86,0.39,413.4,36.9,137.93,37.49,24.65,36.37,0.96,0.53,-25.62,-69,563,-941,33.0,20.2,7.2,32.9,0.9,-31.5,5.73,2.24,-24.9,36.8
2012-07-11 00:03:00,0.0,1.9124,0.0014,381.36,0.50,414.3,35.4,137.93,37.49,24.65,36.37,0.96,1.37,-25.63,-69,563,-941,33.0,19.3,6.5,32.9,0.9,-31.7,5.73,2.23,-24.9,36.7
2012-07-11 00:04:00,0.0,1.9104,0.0012,382.04,0.42,406.9,38.0,137.93,37.50,24.64,36.38,0.95,2.17,-25.63,-69,563,-940,33.0,18.7,6.1,32.9,0.9,-31.8,5.73,2.22,-24.9,36.7
2012-07-11 00:05:00,0.0,1.9106,0.0012,381.77,0.38,413.9,34.4,137.93,37.50,24.65,36.38,0.97,2.81,-25.63,-69,563,-941,33.0,19.4,6.6,32.9,0.9,-31.8,5.73,2.25,-24.9,36.8
2012-07-11 00:06:00,0.0,1.9128,0.0015,381.33,0.41,410.4,42.4,137.93,37.50,24.65,36.37,0.97,3.07,-25.63,-69,563,-941,33.0,20.0,7.0,32.9,0.8,-31.9,5.73,2.21,-24.9,36.8
2012-07-11 00:07:00,0.0,1.9161,0.0015,380.69,0.45,417.4,29.7,137.92,37.51,24.64,36.37,0.97,3.34,-25.62,-69,563,-940,33.0,20.3,7.3,32.9,0.8,-32.2,5.73,2.25,-24.9,36.8
2012-07-11 00:08:00,0.0,1.9162,0.0014,380.88,0.34,409.6,36.7,137.93,37.51,24.65,36.37,0.98,3.83,-25.62,-69,563,-941,33.0,20.2,7.2,32.9,0.8,-32.1,5.73,2.22,-24.9,36.8
2012-07-11 00:09:00,0.0,1.9152,0.0013,381.19,0.47,413.0,39.4,137.93,37.51,24.65,36.37,0.96,4.40,-25.61,-69,563,-940,33.1,19.7,6.9,33.0,0.8,-32.1,5.73,2.22,-24.9,36.8
2012-07-11 00:10:00,0.0,1.9145,0.0012,381.71,0.41,415.2,28.2,137.93,37.52,24.64,36.36,0.97,4.99,-25.60,-69,563,-940,33.1,19.5,6.7,32.9,0.8,-32.1,5.73,2.24,-24.9,36.9
2012-07-11 00:11:00,0.0,1.9144,0.0015,381.36,0.39,411.3,28.6,137.93,37.52,24.65,36.37,0.97,5.56,-25.59,-69,563,-941,33.1,19.8,6.9,32.9,0.8,-32.1,5.73,2.21,-24.9,36.9
2012-07-11 00:12:00,0.0,1.9148,0.0013,381.41,0.42,418.7,32.3,137.92,37.53,24.64,36.37,0.97,6.14,-25.59,-69,563,-940,33.1,19.9,7.0,33.0,0.8,-32.1,5.73,2.25,-24.9,36.9
2012-07-11 00:13:00,0.0,1.9162,0.0021,380.70,0.61,414.3,31.5,137.93,37.53,24.64,36.37,0.98,6.69,-25.58,-69,563,-940,33.1,21.2,7.9,33.0,0.8,-32.3,5.73,2.21,-24.9,36.9
2012-07-11 00:14:00,0.0,1.9185,0.0015,380.42,0.50,411.7,32.2,137.92,37.54,24.65,36.38,0.97,7.21,-25.57,-69,563,-941,33.1,20.4,7.3,33.0,0.8,-32.3,5.73,2.23,-24.9,36.9
2012-07-11 00:15:00,0.0,1.9174,0.0013,381.16,0.35,411.1,32.4,137.93,37.54,24.64,36.37,0.98,7.71,-25.56,-69,563,-940,33.1,20.0,7.1,33.0,0.8,-32.4,5.73,2.23,-24.9,36.9
2012-07-11 00:16:00,0.0,1.9180,0.0016,380.73,0.54,417.2,34.7,137.93,37.55,24.64,36.38,0.97,8.19,-25.55,-69,563,-941,33.1,20.7,7.5,33.0,0.8,-32.4,5.73,2.21,-24.9,36.9
2012-07-11 00:17:00,0.0,1.9192,0.0012,381.23,0.49,413.2,37.2,137.92,37.56,24.65,36.37,0.97,8.64,-25.54,-69,563,-941,33.1,20.0,7.1,33.0,0.8,-32.4,5.73,2.25,-24.9,36.9
2012-07-11 00:18:00,0.0,1.9194,0.0014,381.31,0.39,417.3,32.5,137.92,37.56,24.64,36.37,0.98,9.07,-25.54,-69,563,-940,33.1,20.1,7.2,33.0,0.8,-32.4,5.73,2.20,-24.9,36.9
2012-07-11 00:19:00,0.0,1.9199,0.0017,380.88,0.39,412.2,35.1,137.93,37.57,24.65,36.38,0.98,9.49,-25.53,-69,563,-941,33.1,20.4,7.4,33.0,0.8,-32.5,5.73,2.24,-24.9,36.9
2012-07-11 00:20:00,0.0,1.9212,0.0013,381.00,0.38,409.3,32.8,137.93,37.58,24.64,36.38,0.98,9.89,-25.52,-69,563,-940,33.1,20.2,7.2,33.0,0.8,-32.4,5.73,2.21,-24.9,36.9
2012-07-11 00:21:00,0.0,1.9213,0.0013,381.33,0.46,413.8,31.5,137.92,37.59,24.64,36.38,0.99,10.29,-25.51,-69,563,-940,33.1,19.9,7.0,33.0,0.8,-32.5,5.73,2.22,-24.9,36.9
2012-07-11 00:22:00,0.0,1.9218,0.0015,381.36,0.38,412.4,36.3,137.93,37.59,24.64,36.38,0.97,10.67,-25.50,-69,563,-941,33.1,20.0,7.1,33.0,0.8,-32.5,5.73,2.23,-24.9,36.9
2012-07-11 00:23:00,0.0,1.9241,0.0013,381.49,0.37,416.8,34.5,137.93,37.60,24.64,36.37,0.97,11.04,-25.49,-69,563,-940,33.1,20.3,7.4,33.0,0.8,-32.5,5.73,2.21,-24.9,36.9
2012-07-11 00:24:00,0.0,1.9255,0.0009,381.05,0.45,414.4,35.9,137.93,37.60,24.64,36.38,0.98,11.39,-25.49,-69,563,-940,33.1,20.8,7.7,33.0,0.8,-32.4,5.73,2.24,-24.9,37.0
2012-07-11 00:25:00,0.0,1.9292,0.0017,381.53,0.44,423.6,36.0,137.92,37.60,24.64,36.37,0.97,11.74,-25.47,-69,563,-941,33.1,20.5,7.5,33.0,0.8,-32.4,5.73,2.20,-24.9,37.0
2012-07-11 00:26:00,0.0,1.9291,0.0014,381.43,0.42,411.8,36.3,137.92,37.61,24.64,36.37,0.98,12.06,-25.47,-69,563,-940,33.1,20.7,7.7,33.1,0.8,-32.4,5.73,2.24,-25.0,37.0
2012-07-11 00:27:00,0.0,1.9285,0.0014,381.47,0.38,410.5,36.9,137.92,37.61,24.64,36.37,0.98,12.38,-25.46,-69,564,-941,33.1,20.7,7.6,33.1,0.8,-32.3,5.73,2.21,-25.0,37.0
2012-07-11 00:28:00,0.0,1.9287,0.0010,381.58,0.38,417.5,33.8,137.92,37.62,24.64,36.37,0.98,12.70,-25.45,-69,564,-940,33.1,20.6,7.5,33.1,0.8,-32.3,5.73,2.22,-25.0,37.0
2012-07-11 00:29:00,0.0,1.9285,0.0013,381.46,0.41,414.4,31.9,137.92,37.62,24.64,36.38,0.97,12.99,-25.44,-69,563,-940,33.1,20.6,7.6,33.1,0.8,-32.4,5.73,2.24,-25.0,37.0
2012-07-11 00:30:00,0.0,1.9286,0.0012,381.72,0.37,419.0,36.2,137.92,37.63,24.64,36.37,0.98,13.27,-25.44,-69,563,-941,33.1,20.4,7.4,33.1,0.8,-32.4,5.73,2.20,-25.0,37.0
2012-07-11 00:31:00,0.0,1.9289,0.0013,381.74,0.39,419.6,32.0,137.93,37.63,24.64,36.37,0.98,13.54,-25.42,-69,563,-940,33.1,20.3,7.4,33.1,0.8,-32.4,5.73,2.24,-25.0,37.0
2012-07-11 00:32:00,0.0,1.9312,0.0012,381.98,0.41,418.5,31.9,137.92,37.64,24.64,36.38,0.98,13.80,-25.41,-69,564,-940,33.1,20.3,7.3,33.1,0.8,-32.4,5.73,2.20,-25.0,37.0
2012-07-11 00:33:00,0.0,1.9312,0.0011,382.00,0.42,412.4,33.0,137.92,37.64,24.65,36.38,0.98,14.05,-25.40,-69,564,-941,33.1,20.3,7.4,33.1,0.8,-32.4,5.73,2.24,-25.0,37.0
2012-07-11 00:34:00,0.0,1.9314,0.0012,382.06,0.42,420.8,35.6,137.92,37.65,24.64,36.38,0.99,14.30,-25.40,-69,564,-940,33.2,20.3,7.4,33.1,0.8,-32.4,5.73,2.21,-25.0,37.0
2012-07-11 00:35:00,0.0,1.9316,0.0011,382.20,0.37,410.1,33.2,137.92,37.66,24.65,36.38,0.99,14.52,-25.39,-69,564,-941,33.2,20.1,7.2,33.1,0.8,-32.3,5.73,2.22,-25.0,37.0
2012-07-11 00:36:00,0.0,1.9293,0.0015,382.57,0.46,415.4,29.7,137.92,37.66,24.65,36.38,0.99,14.74,-25.39,-69,564,-940,33.2,20.0,7.1,33.1,0.8,-32.3,5.73,2.23,-25.0,37.0
2012-07-11 00:37:00,0.0,1.9293,0.0013,382.56,0.42,412.3,32.6,137.92,37.66,24.64,36.38,0.99,14.95,-25.38,-69,564,-940,33.2,19.9,7.1,33.1,0.8,-32.4,5.73,2.21,-25.0,36.9
2012-07-11 00:38:00,0.0,1.9273,0.0015,382.69,0.41,411.9,36.0,137.92,37.67,24.65,36.37,0.99,15.15,-25.37,-69,564,-941,33.2,20.0,7.2,33.1,0.8,-32.4,5.73,2.24,-25.1,37.0
2012-07-11 00:39:00,0.0,1.9260,0.0013,382.75,0.39,418.7,37.6,137.92,37.67,24.65,36.38,1.00,15.35,-25.37,-69,564,-940,33.2,20.0,7.2,33.1,0.8,-32.3,5.73,2.20,-25.1,37.0
2012-07-11 00:40:00,0.0,1.9266,0.0017,382.73,0.41,416.3,33.1,137.92,37.67,24.64,36.37,0.98,15.53,-25.36,-69,564,-941,33.2,20.1,7.2,33.1,0.8,-32.4,5.73,2.24,-25.0,36.9
2012-07-11 00:41:00,0.0,1.9268,0.0010,382.36,0.52,418.2,32.6,137.92,37.68,24.64,36.38,0.99,15.71,-25.35,-69,564,-940,33.2,20.4,7.4,33.1,0.8,-32.4,5.73,2.21,-25.0,37.0
2012-07-11 00:42:00,0.0,1.9198,0.0048,382.29,0.57,414.5,32.3,137.92,37.68,24.64,36.38,0.99,15.88,-25.35,-69,564,-941,33.2,21.0,7.9,33.1,0.8,-32.4,5.73,2.23,-25.0,37.0
2012-07-11 00:43:00,0.0,1.9123,0.0013,383.31,0.46,427.4,33.8,137.92,37.69,24.65,36.38,1.00,16.04,-25.34,-69,564,-941,33.2,20.3,7.4,33.1,0.8,-32.4,5.73,2.22,-25.0,37.0
2012-07-11 00:44:00,0.0,1.9121,0.0014,383.39,0.37,412.8,34.2,137.92,37.70,24.64,36.37,1.01,16.19,-25.34,-69,564,-941,33.2,20.4,7.5,33.1,0.8,-32.3,5.73,2.21,-25.0,37.0
2012-07-11 00:45:00,0.0,1.9112,0.0011,383.29,0.47,416.9,37.7,137.92,37.70,24.65,36.38,1.01,16.34,-25.33,-69,564,-941,33.2,20.0,7.2,33.1,0.8,-32.4,5.73,2.24,-25.0,37.0
2012-07-11 00:46:00,0.0,1.9101,0.0012,383.47,0.44,418.2,37.6,137.92,37.71,24.64,36.38,0.98,16.48,-25.33,-69,564,-940,33.2,19.3,6.7,33.2,0.8,-32.3,5.73,2.20,-25.1,37.1
2012-07-11 00:47:00,0.0,1.9101,0.0013,383.50,0.45,414.6,32.1,137.92,37.72,24.64,36.37,1.00,16.61,-25.32,-69,564,-941,33.2,19.8,7.1,33.1,0.8,-32.3,5.73,2.24,-25.1,37.1
2012-07-11 00:48:00,0.0,1.9101,0.0012,383.31,0.43,415.4,38.3,137.92,37.73,24.64,36.38,0.99,16.74,-25.32,-69,564,-940,33.3,19.9,7.2,33.2,0.8,-32.3,5.73,2.20,-25.1,37.0
2012-07-11 00:49:00,0.0,1.9096,0.0013,383.41,0.44,414.8,35.8,137.92,37.73,24.65,36.37,1.00,16.87,-25.31,-69,564,-941,33.2,19.5,6.8,33.2,0.8,-32.3,5.73,2.23,-25.1,37.0
2012-07-11 00:50:00,0.0,1.9100,0.0014,383.44,0.30,424.1,41.4,137.92,37.74,24.64,36.37,0.99,16.98,-25.31,-69,564,-940,33.3,19.6,7.0,33.2,0.8,-32.4,5.73,2.22,-25.1,37.0
2012-07-11 00:51:00,0.0,1.9105,0.0011,383.14,0.39,416.0,36.7,137.92,37.74,24.65,36.37,0.98,17.09,-25.30,-69,564,-941,33.3,19.9,7.2,33.2,0.8,-32.4,5.73,2.21,-25.1,37.1
2012-07-11 00:52:00,0.0,1.9108,0.0013,382.86,0.37,413.0,35.8,137.92,37.74,24.65,36.37,0.98,17.21,-25.29,-69,564,-940,33.2,20.1,7.3,33.2,0.8,-32.3,5.73,2.24,-25.1,37.1
2012-07-11 00:53:00,0.0,1.9110,0.0011,382.72,0.43,406.2,30.4,137.92,37.75,24.64,36.37,0.99,17.31,-25.29,-69,564,-941,33.3,20.1,7.3,33.2,0.8,-32.3,5.73,2.20,-25.1,37.1
2012-07-11 00:54:00,0.0,1.9107,0.0012,382.88,0.38,418.1,35.0,137.92,37.76,24.64,36.38,0.97,17.41,-25.28,-69,564,-941,33.3,19.5,6.9,33.2,0.8,-32.4,5.73,2.24,-25.1,37.1
2012-07-11 00:55:00,0.0,1.9114,0.0012,382.84,0.42,414.5,34.6,137.92,37.76,24.64,36.38,0.97,17.50,-25.28,-69,564,-941,33.3,20.5,7.6,33.2,0.8,-32.3,5.73,2.20,-25.1,37.1
2012-07-11 00:56:00,0.0,1.9135,0.0013,383.47,0.52,405.1,33.4,137.92,37.76,24.64,36.37,0.98,17.60,-25.27,-69,564,-941,33.3,20.6,7.7,33.2,0.8,-32.3,5.73,2.23,-25.1,37.1
2012-07-11 00:57:00,0.0,1.9138,0.0012,383.75,0.40,422.3,36.0,137.92,37.77,24.65,36.37,0.98,17.68,-25.27,-69,564,-940,33.3,20.7,7.8,33.2,0.8,-32.3,5.73,2.21,-25.1,37.1
2012-07-11 00:58:00,0.0,1.9140,0.0012,383.43,0.46,411.4,32.0,137.92,37.78,24.64,36.38,0.98,17.77,-25.26,-69,564,-941,33.3,20.5,7.6,33.2,0.8,-32.3,5.73,2.22,-25.1,37.1
2012-07-11 00:59:00,0.0,1.9131,0.0014,383.13,0.47,416.7,34.0,137.92,37.78,24.64,36.37,0.99,17.85,-25.26,-69,564,-940,33.3,20.4,7.6,33.2,0.8,-32.3,5.73,2.23,-25.1,37.2
2012-07-11 01:00:00,0.0,1.9127,0.0012,383.30,0.45,417.9,36.0,137.92,37.78,24.64,36.37,0.98,17.92,-25.26,-69,564,-941,33.3,20.2,7.4,33.2,0.8,-32.2,5.73,2.20,-25.1,37.1
2012-07-11 01:01:00,0.0,1.9125,0.0013,382.99,0.36,417.3,38.0,137.92,37.79,24.64,36.37,0.99,18.00,-25.25,-69,564,-941,33.3,20.6,7.7,33.2,0.8,-32.3,5.73,2.24,-25.1,37.1
2012-07-11 01:02:00,0.0,1.9111,0.0012,383.27,0.36,408.7,27.7,137.92,37.79,24.65,36.37,0.99,18.06,-25.25,-69,564,-941,33.3,19.8,7.1,33.2,0.8,-32.3,5.73,2.20,-25.1,37.1
2012-07-11 01:03:00,0.0,1.9114,0.0011,383.09,0.42,418.9,25.2,137.92,37.80,24.65,36.38,1.00,18.14,-25.25,-69,565,-941,33.3,20.6,7.7,33.2,0.8,-32.3,5.73,2.23,-25.1,37.1
2012-07-11 01:04:00,0.0,1.9096,0.0022,382.75,0.57,412.3,32.7,137.92,37.80,24.65,36.38,1.00,18.19,-25.24,-69,564,-941,33.3,19.3,6.8,33.3,0.8,-32.3,5.73,2.21,-25.1,37.1
2012-07-11 01:05:00,0.0,1.9086,0.0013,382.66,0.44,409.4,34.7,137.92,37.81,24.64,36.38,1.00,18.26,-25.24,-69,564,-941,33.3,19.9,7.2,33.3,0.8,-32.2,5.73,2.22,-25.1,37.1
2012-07-11 01:06:00,0.0,1.9074,0.0013,383.20,0.40,420.7,32.5,137.92,37.82,24.65,36.38,0.99,18.31,-25.23,-69,564,-940,33.3,18.8,6.4,33.3,0.8,-32.3,5.73,2.22,-25.1,37.1
2012-07-11 01:07:00,0.0,1.9083,0.0014,383.36,0.42,417.1,32.9,137.92,37.83,24.64,36.38,1.00,18.37,-25.23,-69,564,-941,33.3,19.3,6.8,33.3,0.8,-32.3,5.73,2.20,-25.1,37.1
2012-07-11 01:08:00,0.0,1.9086,0.0014,383.33,0.43,419.5,34.0,137.92,37.83,24.65,36.37,1.01,18.42,-25.23,-69,564,-941,33.3,19.8,7.1,33.3,0.8,-32.3,5.73,2.23,-25.1,37.2
2012-07-11 01:09:00,0.0,1.9078,0.0014,383.00,0.41,410.8,33.9,137.92,37.83,24.65,36.38,1.00,18.48,-25.23,-69,564,-941,33.3,18.3,6.0,33.3,0.8,-32.3,5.73,2.19,-25.1,37.2
2012-07-11 01:10:00,0.0,1.9068,0.0015,383.33,0.40,411.6,31.3,137.92,37.84,24.64,36.38,1.01,18.53,-25.22,-69,565,-941,33.4,18.7,6.4,33.3,0.8,-32.2,5.73,2.24,-25.1,37.2
2012-07-11 01:11:00,0.0,1.9081,0.0012,382.80,0.50,409.8,34.5,137.92,37.84,24.65,36.39,1.00,18.58,-25.22,-69,564,-941,33.4,20.5,7.7,33.3,0.8,-32.3,5.73,2.20,-25.1,37.2
2012-07-11 01:12:00,0.0,1.9091,0.0011,383.25,0.53,412.8,31.8,137.92,37.85,24.64,36.38,0.99,18.62,-25.22,-69,564,-941,33.4,19.4,6.9,33.3,0.8,-32.2,5.73,2.23,-25.1,37.1
2012-07-11 01:13:00,0.0,1.9086,0.0012,383.56,0.32,416.3,32.5,137.92,37.86,24.64,36.38,1.00,18.66,-25.22,-69,565,-941,33.4,19.0,6.6,33.3,0.8,-32.3,5.73,2.21,-25.1,37.1
2012-07-11 01:14:00,0.0,1.9087,0.0010,383.51,0.43,412.6,32.6,137.92,37.86,24.65,36.38,0.98,18.71,-25.21,-69,565,-941,33.4,19.5,7.0,33.3,0.8,-32.3,5.73,2.22,-25.1,37.1
2012-07-11 01:15:00,0.0,1.9093,0.0011,383.46,0.42,414.6,31.1,137.92,37.87,24.65,36.38,0.99,18.75,-25.21,-69,565,-941,33.4,19.6,7.1,33.3,0.8,-32.2,5.73,2.23,-25.2,37.1
2012-07-11 01:16:00,0.0,1.9092,0.0012,383.82,0.45,410.6,29.1,137.92,37.87,24.64,36.37,0.97,18.78,-25.22,-69,565,-941,33.4,19.1,6.7,33.3,0.8,-32.3,5.73,2.20,-25.2,37.1
2012-07-11 01:17:00,0.0,1.9081,0.0013,383.71,0.43,414.4,29.4,137.92,37.88,24.65,36.38,0.98,18.82,-25.22,-69,565,-941,33.4,19.2,6.7,33.3,0.8,-32.3,5.73,2.23,-25.2,37.1
2012-07-11 01:18:00,0.0,1.9094,0.0014,383.72,0.38,407.9,30.6,137.92,37.88,24.64,36.38,0.98,18.86,-25.21,-69,565,-941,33.4,18.9,6.5,33.3,0.8,-32.2,5.73,2.20,-25.2,37.1
2012-07-11 01:19:00,0.0,1.9098,0.0013,384.04,0.49,411.4,28.5,137.92,37.89,24.64,36.38,0.98,18.89,-25.20,-69,565,-940,33.4,18.7,6.4,33.3,0.8,-32.2,5.73,2.24,-25.2,37.2
2012-07-11 01:20:00,0.0,1.9108,0.0013,384.16,0.44,422.5,29.3,137.92,37.89,24.64,36.38,0.99,18.92,-25.20,-69,565,-941,33.4,19.4,6.9,33.3,0.8,-32.3,5.73,2.20,-25.2,37.2
2012-07-11 01:21:00,0.0,1.9109,0.0011,384.46,0.42,421.1,35.6,137.92,37.90,24.65,36.38,1.00,18.95,-25.20,-69,565,-940,33.4,19.4,6.9,33.3,0.8,-32.2,5.73,2.22,-25.2,37.2
2012-07-11 01:22:00,0.0,1.9125,0.0014,384.62,0.48,421.5,34.6,137.92,37.90,24.65,36.37,0.99,18.98,-25.20,-69,564,-941,33.4,19.9,7.3,33.3,0.8,-32.2,5.73,2.21,-25.1,37.2
2012-07-11 01:23:00,0.0,1.9130,0.0011,384.55,0.45,417.4,27.9,137.92,37.91,24.64,36.37,1.00,19.01,-25.20,-69,565,-940,33.4,20.2,7.5,33.4,0.8,-32.1,5.73,2.21,-25.1,37.3
2012-07-11 01:24:00,0.0,1.9124,0.0012,384.22,0.47,414.2,31.9,137.92,37.92,24.64,36.38,0.99,19.05,-25.19,-69,565,-941,33.4,20.3,7.6,33.4,0.8,-32.3,5.73,2.22,-25.1,37.3
2012-07-11 01:25:00,0.0,1.9116,0.0012,384.51,0.38,421.6,32.8,137.92,37.92,24.64,36.38,1.00,19.07,-25.19,-69,565,-940,33.4,19.7,7.1,33.3,0.8,-32.2,5.73,2.20,-25.1,37.3
2012-07-11 01:26:00,0.0,1.9109,0.0011,384.44,0.48,420.6,30.5,137.92,37.93,24.64,36.38,1.01,19.09,-25.19,-69,565,-941,33.4,19.1,6.7,33.3,0.8,-32.3,5.73,2.23,-25.1,37.2
2012-07-11 01:27:00,0.0,1.9121,0.0011,384.53,0.43,419.3,40.2,137.92,37.93,24.64,36.38,1.02,19.12,-25.19,-69,565,-940,33.4,19.6,7.1,33.3,0.8,-32.3,5.73,2.19,-25.1,37.3
2012-07-11 01:28:00,0.0,1.9138,0.0013,384.58,0.40,416.8,33.2,137.92,37.94,24.65,36.39,1.00,19.14,-25.19,-69,565,-941,33.4,20.1,7.5,33.4,0.8,-32.3,5.73,2.23,-25.1,37.3
2012-07-11 01:29:00,0.0,1.9148,0.0011,384.85,0.43,414.2,35.8,137.92,37.94,24.64,36.38,1.01,19.16,-25.19,-69,565,-940,33.5,20.1,7.5,33.4,0.8,-32.3,5.73,2.19,-25.0,37.3
2012-07-11 01:30:00,0.0,1.9144,0.0012,384.84,0.42,413.7,29.3,137.92,37.95,24.64,36.37,1.01,19.18,-25.19,-69,565,-941,33.5,19.9,7.3,33.4,0.8,-32.2,5.73,2.23,-25.1,37.3
2012-07-11 01:31:00,0.0,1.9144,0.0012,384.80,0.44,411.8,33.8,137.92,37.96,24.64,36.38,1.01,19.21,-25.19,-69,565,-941,33.5,20.4,7.7,33.4,0.8,-32.2,5.73,2.21,-25.1,37.3
2012-07-11 01:32:00,0.0,1.9143,0.0015,384.81,0.42,411.4,33.3,137.92,37.96,24.64,36.39,0.99,19.22,-25.18,-69,565,-941,33.5,19.9,7.3,33.4,0.8,-32.2,5.73,2.21,-25.1,37.2
2012-07-11 01:33:00,0.0,1.9119,0.0013,385.09,0.44,419.4,31.8,137.92,37.97,24.65,36.38,0.99,19.24,-25.18,-69,565,-941,33.5,19.5,7.0,33.4,0.8,-32.2,5.73,2.22,-25.1,37.2
2012-07-11 01:34:00,0.0,1.9142,0.0010,384.92,0.45,413.0,29.0,137.92,37.97,24.64,36.38,0.98,19.26,-25.18,-69,565,-940,33.5,20.3,7.6,33.4,0.8,-32.3,5.73,2.20,-25.1,37.2
2012-07-11 01:35:00,0.0,1.9128,0.0013,384.76,0.40,415.3,31.7,137.92,37.98,24.65,36.39,0.98,19.28,-25.18,-69,565,-941,33.5,19.4,7.0,33.4,0.8,-32.2,5.73,2.23,-25.1,37.2
2012-07-11 01:36:00,0.0,1.9127,0.0010,385.08,0.40,409.0,28.6,137.92,37.99,24.64,36.38,0.98,19.30,-25.18,-69,565,-940,33.5,19.7,7.2,33.4,0.8,-32.2,5.73,2.19,-25.1,37.3
2012-07-11 01:37:00,0.0,1.9130,0.0010,385.03,0.34,417.6,29.7,137.92,37.99,24.65,36.38,0.98,19.31,-25.17,-69,565,-941,33.5,19.5,7.1,33.4,0.8,-32.2,5.73,2.23,-25.1,37.3
2012-07-11 01:38:00,0.0,1.9120,0.0011,384.97,0.37,427.3,33.5,137.92,38.00,24.64,36.38,0.98,19.33,-25.17,-69,565,-940,33.5,18.9,6.6,33.4,0.8,-32.2,5.73,2.19,-25.1,37.3
2012-07-11 01:39:00,0.0,1.9101,0.0014,384.76,0.46,416.9,34.7,137.91,38.01,24.65,36.37,0.98,19.35,-25.17,-69,565,-941,33.5,18.3,6.1,33.4,0.8,-32.2,5.73,2.22,-25.1,37.3
2012-07-11 01:40:00,0.0,1.9078,0.0012,384.30,0.56,417.7,34.3,137.92,38.02,24.65,36.38,0.98,19.36,-25.17,-69,565,-940,33.5,18.1,6.0,33.4,0.8,-32.2,5.73,2.20,-25.1,37.4
2012-07-11 01:41:00,0.0,1.9091,0.0015,384.65,0.39,413.2,31.9,137.92,38.02,24.65,36.37,1.04,19.34,-25.16,-69,565,-941,33.5,18.8,6.6,33.5,0.8,-32.2,5.73,2.21,-25.1,37.4
2012-07-11 01:42:00,0.0,1.9105,0.0010,384.72,0.47,422.6,30.9,137.92,38.03,24.64,36.38,1.20,18.26,-25.17,-69,565,-941,33.5,18.6,6.4,33.5,0.8,-32.2,5.73,2.21,-25.1,37.4
2012-07-11 01:43:00,0.0,1.9114,0.0009,384.74,0.44,421.8,29.9,137.92,38.03,24.65,36.38,1.07,16.11,-25.17,-69,565,-941,33.6,19.5,7.1,33.5,0.8,-32.2,5.73,2.20,-25.0,37.4
2012-07-11 01:44:00,0.0,1.9124,0.0012,384.57,0.39,418.3,32.5,137.92,38.04,24.64,36.38,1.08,13.78,-25.16,-69,565,-941,33.5,19.7,7.2,33.5,0.8,-32.1,5.73,2.22,-25.0,37.4
2012-07-11 01:45:00,0.0,1.9114,0.0011,384.77,0.44,422.3,31.2,137.92,38.04,24.64,36.37,1.16,11.46,-25.15,-69,565,-941,33.6,19.4,7.0,33.5,0.8,-32.2,5.73,2.19,-25.0,37.4
2012-07-11 01:46:00,0.0,1.9129,0.0011,385.15,0.44,428.2,36.3,137.92,38.05,24.65,36.38,1.10,9.21,-25.14,-69,565,-941,33.6,19.1,6.9,33.5,0.8,-32.2,5.73,2.23,-25.0,37.4
2012-07-11 01:47:00,0.0,1.9125,0.0015,385.26,0.47,422.6,29.6,137.91,38.06,24.65,36.38,1.06,7.05,-25.12,-69,565,-940,33.6,19.1,6.8,33.5,0.8,-32.2,5.73,2.19,-25.0,37.4
2012-07-11 01:48:00,0.0,1.9140,0.0014,385.26,0.41,424.9,32.0,137.92,38.06,24.64,36.38,1.13,5.01,-25.10,-69,565,-941,33.6,19.1,6.8,33.5,0.8,-32.2,5.73,2.22,-25.0,37.4
2012-07-11 01:49:00,0.0,1.9138,0.0011,385.37,0.46,431.1,30.1,137.92,38.07,24.64,36.38,1.14,3.06,-25.08,-69,565,-940,33.6,18.9,6.7,33.5,0.8,-32.2,5.73,2.20,-25.0,37.4
2012-07-11 01:50:00,0.0,1.9125,0.0011,385.02,0.46,428.6,31.2,137.91,38.07,24.64,36.39,1.07,1.21,-25.06,-69,565,-941,33.6,18.4,6.3,33.5,0.8,-32.2,5.73,2.21,-25.0,37.4
2012-07-11 01:51:00,0.0,1.9116,0.0011,384.90,0.51,422.9,31.1,137.92,38.08,24.64,36.38,1.08,-0.54,-25.03,-69,565,-940,33.6,18.8,6.6,33.6,0.8,-32.2,5.73,2.20,-25.0,37.5
2012-07-11 01:52:00,0.0,1.9125,0.0012,385.01,0.48,428.6,29.0,137.91,38.08,24.64,36.38,1.15,-2.18,-25.02,-69,565,-941,33.6,19.5,7.2,33.6,0.8,-32.2,5.73,2.20,-25.0,37.5
2012-07-11 01:53:00,0.0,1.9132,0.0011,384.84,0.45,425.3,31.5,137.92,38.09,24.65,36.39,1.11,-3.32,-25.00,-69,566,-941,33.6,19.8,7.4,33.6,0.8,-32.1,5.73,2.21,-25.0,37.5
2012-07-11 01:54:00,0.0,1.9131,0.0014,384.61,0.46,421.1,27.5,137.92,38.10,24.64,36.38,1.05,-4.47,-24.98,-69,566,-941,33.6,19.6,7.3,33.6,0.8,-32.2,5.73,2.19,-25.0,37.5
2012-07-11 01:55:00,0.0,1.9100,0.0015,384.71,0.51,419.2,31.6,137.91,38.10,24.65,36.38,1.10,-6.07,-24.96,-69,566,-941,33.7,18.2,6.2,33.6,0.8,-32.2,5.73,2.22,-25.0,37.5
2012-07-11 01:56:00,0.0,1.9080,0.0012,384.31,0.42,426.9,32.6,137.91,38.11,24.64,36.38,1.14,-7.38,-24.96,-69,565,-941,33.7,17.5,5.6,33.6,0.8,-32.1,5.73,2.18,-25.0,37.5
2012-07-11 01:57:00,0.0,1.9086,0.0018,384.44,0.44,426.8,29.2,137.91,38.12,24.65,36.38,1.10,-8.61,-24.95,-69,566,-941,33.7,18.8,6.7,33.6,0.8,-32.2,5.73,2.22,-25.0,37.6
2012-07-11 01:58:00,0.0,1.9127,0.0013,384.93,0.55,419.5,31.9,137.92,38.12,24.64,36.38,1.04,-9.75,-24.93,-69,566,-940,33.7,18.8,6.7,33.6,0.8,-32.0,5.73,2.18,-25.0,37.5
2012-07-11 01:59:00,0.0,1.9113,0.0010,384.86,0.36,433.3,28.5,137.91,38.13,24.64,36.38,1.10,-10.83,-24.93,-69,566,-941,33.7,18.7,6.7,33.6,0.8,-32.2,5.73,2.22,-25.0,37.6
2012-07-11 02:00:00,1.0,1.9095,0.0020,385.84,0.87,428.8,26.2,137.91,38.14,24.64,36.38,1.12,-11.89,-24.92,-69,563,-940,33.7,18.8,6.7,33.6,0.8,-32.1,5.73,2.18,-25.0,37.6
2012-07-11 02:01:00,1.0,1.9081,0.0011,386.48,0.50,421.7,31.1,137.91,38.14,24.64,36.38,1.09,-12.78,-24.92,-69,562,-941,33.7,18.3,6.3,33.6,0.8,-32.1,5.73,2.21,-25.0,37.5
2012-07-11 02:02:00,1.0,1.9079,0.0011,386.39,0.41,427.7,29.9,137.91,38.15,24.64,36.38,1.04,-13.66,-24.92,-69,562,-941,33.7,17.9,6.0,33.7,0.8,-32.1,5.73,2.19,-25.0,37.5
2012-07-11 02:03:00,1.0,1.9075,0.0010,386.35,0.45,428.1,34.8,137.91,38.16,24.64,36.38,1.08,-14.46,-24.91,-69,562,-941,33.7,18.1,6.2,33.7,0.8,-32.1,5.73,2.19,-25.0,37.5
2012-07-11 02:04:00,1.0,1.9074,0.0010,386.44,0.47,420.5,29.5,137.92,38.17,24.65,36.37,1.13,-15.27,-24.92,-69,563,-941,33.7,18.4,6.4,33.7,0.8,-32.2,5.73,2.20,-25.0,37.5
2012-07-11 02:05:00,0.0,1.9091,0.0017,385.38,0.74,423.1,29.3,137.91,38.18,24.64,36.38,1.10,-16.06,-24.92,-70,564,-941,33.8,18.4,6.4,33.7,0.8,-32.1,5.73,2.20,-25.1,37.5
2012-07-11 02:06:00,0.0,1.9108,0.0011,384.70,0.41,415.0,25.7,137.91,38.18,24.64,36.38,1.04,-16.73,-24.92,-70,564,-941,33.8,18.5,6.5,33.7,0.8,-32.1,5.73,2.21,-25.1,37.4
2012-07-11 02:07:00,0.0,1.9111,0.0010,384.70,0.43,413.2,26.9,137.91,38.19,24.64,36.39,1.06,-17.38,-24.93,-69,565,-940,33.8,18.4,6.4,33.7,0.8,-32.2,5.73,2.18,-25.2,37.5
2012-07-11 02:08:00,0.0,1.9107,0.0011,384.77,0.51,411.7,32.7,137.91,38.20,24.64,36.38,1.09,-18.02,-24.93,-70,565,-941,33.8,18.2,6.3,33.7,0.8,-32.0,5.73,2.22,-25.2,37.6
2012-07-11 02:09:00,0.0,1.9111,0.0012,384.66,0.46,412.2,32.3,137.91,38.21,24.64,36.38,1.14,-18.62,-24.93,-70,565,-940,33.8,18.5,6.6,33.7,0.8,-32.1,5.73,2.18,-25.2,37.6
2012-07-11 02:10:00,0.0,1.9106,0.0013,384.63,0.41,417.2,32.8,137.91,38.22,24.64,36.38,1.09,-19.20,-24.94,-69,565,-941,33.9,17.8,6.0,33.8,0.8,-32.2,5.73,2.22,-25.2,37.7
2012-07-11 02:11:00,0.0,1.9105,0.0011,384.45,0.43,409.4,32.0,137.91,38.22,24.64,36.38,1.04,-19.73,-24.94,-70,565,-940,33.9,18.7,6.8,33.7,0.8,-32.1,5.73,2.18,-25.3,37.7
2012-07-11 02:12:00,0.0,1.9134,0.0014,384.56,0.46,413.5,32.3,137.91,38.23,24.64,36.38,1.06,-20.24,-24.94,-70,565,-941,33.9,19.8,7.6,33.8,0.8,-32.0,5.73,2.22,-25.3,37.7
2012-07-11 02:13:00,0.0,1.9130,0.0012,384.67,0.49,405.7,27.2,137.91,38.24,24.64,36.38,1.11,-20.73,-24.95,-70,565,-940,33.9,18.6,6.7,33.8,0.8,-32.2,5.73,2.19,-25.3,37.7
2012-07-11 02:14:00,0.0,1.9126,0.0011,384.56,0.44,412.9,36.3,137.91,38.25,24.64,36.38,1.12,-21.19,-24.96,-70,566,-941,33.9,18.3,6.5,33.8,0.8,-32.0,5.73,2.20,-25.3,37.7
2012-07-11 02:15:00,0.0,1.9124,0.0012,384.57,0.49,411.1,30.4,137.91,38.26,24.64,36.38,1.08,-21.62,-24.97,-70,566,-941,33.9,18.3,6.5,33.8,0.8,-32.0,5.73,2.19,-25.3,37.7
2012-07-11 02:16:00,0.0,1.9116,0.0008,384.32,0.36,410.6,27.7,137.91,38.26,24.65,36.38,1.04,-22.02,-24.97,-70,565,-941,33.9,18.9,7.0,33.8,0.8,-32.0,5.73,2.20,-25.3,37.7
2012-07-11 02:17:00,0.0,1.9122,0.0010,384.28,0.39,403.5,27.6,137.91,38.27,24.64,36.38,1.05,-22.40,-24.98,-70,566,-941,33.9,18.9,7.0,33.8,0.8,-32.2,5.73,2.20,-25.3,37.7
2012-07-11 02:18:00,0.0,1.9114,0.0010,384.42,0.46,410.8,30.4,137.91,38.28,24.64,36.37,1.10,-22.77,-24.99,-70,566,-940,34.0,17.9,6.2,33.8,0.8,-32.3,5.73,2.18,-25.3,37.6
2012-07-11 02:19:00,0.0,1.9115,0.0010,384.39,0.46,406.7,26.6,137.91,38.28,24.65,36.37,1.11,-23.11,-25.00,-70,566,-941,33.9,19.0,7.0,33.9,0.8,-32.4,5.73,2.21,-25.3,37.6
2012-07-11 02:20:00,0.0,1.9130,0.0011,384.53,0.42,405.5,31.7,137.91,38.29,24.64,36.38,1.08,-23.43,-25.00,-70,566,-940,33.9,19.1,7.1,33.9,0.8,-32.5,5.73,2.18,-25.3,37.7